Погода в Зубочистке Второй

Россия / Оренбургская область     51°40′02″N   54°11′37″E
темп.,
°C
ветер,
м/с
пор.,
м/с
влажн.,
%
обл.,
%
осадки,
мм/ч
давл.,
гПа
погр.,
м
14 апреля, ср
ср1423:00+9в6129464 0.0 1035383
02:00+10вюв71086100 0.0 1033567
05:00+9в599289 0.0 1033373
08:00+7в5992100 0.0 1033368
11:00+9в688498 0.0 1032463
14:00+15вюв68550 0.0 1029907
17:00+17вюв78470 0.0 10271155
20:00+13в410600 0.0 1026170
15 апреля, чт
чт1523:00+11в512700 0.0 1026209
02:00+9в48790 0.0 1026129
05:00+7всв36800 0.0 102681
08:00+8в48740 0.0 1025164
11:00+15вюв57480 0.0 1024483
14:00+19юв57355 0.0 10231098
17:00+20юв56321 0.0 10211367
20:00+15вюв34495 0.0 102053
16 апреля, пт
пт1623:00+12в33575 0.0 102034
02:00+10всв35635 0.0 101967
05:00+9всв46665 0.0 101879
08:00+9всв476769 0.0 1018149
11:00+15в56498 0.0 1018413
14:00+19в453924 0.0 10171077
17:00+20в343394 0.0 10172044
20:00+16св444799 0.0 101746
17 апреля, сб
сб1723:00+13св485795 0.0 1017118
02:00+11всв486114 0.0 1018112
05:00+9св496817 0.0 1018121
08:00+10всв49695 0.0 1019218
11:00+15всв57525 0.0 1019540
14:00+18всв55415 0.0 10181240
17:00+19св55385 0.0 10181704
20:00+15ссв59574 0.0 1018192
18 апреля, вс
вс1823:00+12св712692 0.0 1019344
02:00+9св612544 0.0 1020346
05:00+7ссв511590 0.0 1021258
08:00+7ссв612590 0.0 1021387
11:00+11ссв68420 0.0 1021866
14:00+14ссв77370 0.0 10211386
17:00+14ссв78350 0.0 10211589
20:00+11св610480 0.0 1021364